Find Kosmos-2439

NORAD ID: 32956 Int'l Des: 2008-025 Owner: KVR Country: RU operational
LEOCIRCULARPOLAR

Current View

Loading 3D Globe...

About Kosmos-2439

Description loading...

Upcoming Passes

Passes for default location (London). Set your location on the main map for personalized predictions.

Altitude History

Loading altitude history...

Two-Line Element Set

1 32956U 08025D 26151.18912450 .00000084 00000-0 53568-3 0 9997
2 32956 82.5089 8.3650 0020998 354.9140 5.1723 12.43069992817600
Epoch: May 31, 2026 • Age: 9 hours

Current Status

Altitude 1512.7 km
Velocity 7.10 km/s
Sub-Earth Point 0.98°N, 100.58°E
Launch Date May 23, 2008
Age 18 years
Type other

Technical Details

Classification Payload
Mass 225.00 kg
Dry Mass 225.00 kg
Total Mass 225.00 kg
Length 1.60 m
Diameter 0.80 m
Span 7.00 m
Shape Cyl + Ant
Manufacturer RESH
Bus Type Strela-3
Phase Status In Orbit
Owner/State KVR/RU

Most Searched